This is the latest recevied weather packets stored in our database for station/object KB3UQE. If no packets are shown the sender has not sent any weather packets the latest 10 day(s).
| Time | Temp. | Humidity | Pressure | Rain* | Wind** | Luminosity | Snow |
|---|---|---|---|---|---|---|---|
| 1787533810 | 20° C | 76% | 1010.2 hPa | 0 mm | - | - | - |
| 1787533208 | 20.56° C | 75% | 1009.8 hPa | 0 mm | - | - | - |
| 1787532605 | 20.56° C | 74% | 1009.8 hPa | 0 mm | - | - | - |
| 1787532003 | 21.11° C | 72% | 1009.8 hPa | 0 mm | - | - | - |
| 1787531400 | 21.11° C | 71% | 1009.8 hPa | 0 mm | - | - | - |
| 1787530798 | 21.67° C | 70% | 1009.1 hPa | 0 mm | - | - | - |
| 1787530196 | 22.22° C | 67% | 1009.5 hPa | 0 mm | - | - | - |
| 1787529593 | 22.78° C | 66% | 1009.1 hPa | 0 mm | - | - | - |
| 1787528991 | 23.33° C | 65% | 1008.8 hPa | 0 mm | - | - | - |
| 1787528388 | 23.33° C | 63% | 1008.8 hPa | 0 mm | - | - | - |
| 1787527786 | 23.89° C | 62% | 1008.5 hPa | 0 mm | - | - | - |
| 1787527183 | 24.44° C | 61% | 1008.5 hPa | 0 mm | - | - | - |
| 1787526581 | 25° C | 60% | 1008.5 hPa | 0 mm | - | - | - |
| 1787525979 | 25.56° C | 57% | 1008.1 hPa | 0 mm | - | - | - |
| 1787525376 | 26.11° C | 56% | 1008.5 hPa | 0 mm | - | - | - |
| 1787524774 | 26.11° C | 56% | 1008.1 hPa | 0 mm | - | - | - |
| 1787524172 | 26.67° C | 54% | 1008.5 hPa | 0 mm | - | - | - |
| 1787523569 | 26.67° C | 54% | 1008.1 hPa | 0 mm | - | - | - |
| 1787522966 | 27.22° C | 54% | 1007.8 hPa | 0 mm | - | - | - |
| 1787522364 | 27.22° C | 53% | 1007.8 hPa | 0 mm | - | - | - |
| 1787521762 | 27.22° C | 54% | 1008.1 hPa | 0 mm | - | - | - |
| 1787521159 | 27.22° C | 54% | 1007.8 hPa | 0 mm | - | - | - |
| 1787520557 | 27.22° C | 53% | 1008.1 hPa | 0 mm | - | - | - |
| 1787519955 | 27.22° C | 54% | 1008.1 hPa | 0 mm | - | - | - |
| 1787518884 | 26.67° C | 54% | 1007.5 hPa | 0 mm | - | - | - |
* Rain since midnight (hover to see other rain measurements)
** Current wind speed in m/s (hover to see current wind gust speed)